Location: Huppendorf
(49.9333°N, 11.1500°E)
Time: 07:38:31
(UTC+00:00)

STARLINK-38 - Pass Details

Date: 27 February 2020
Orbit: 529 x 530 km, 53.0° (Epoch: 31 March)

Event Time Altitude Azimuth Distance (km) Brightness Sun altitude
Rises 17:58:54 0° 274° (W) 2,667 9.3 -11.3°
Reaches altitude 10° 18:01:10 10° 279° (W) 1,779 7.7 -11.7°
Maximum altitude 18:05:07 54° 358° (N) 651 4.0 -12.3°
Enters shadow 18:07:52 19° 71° (ENE) 1,323 5.0 -12.8°
